Fergus Falls, MN

11:26 PM CST on December 12, 2019 (GMT -0600)
Fergus Falls Municipal-Mickelson

Weather History for KFFM - October, 2019

Change the Weather History Date:

Wednesday, October 9, 2019

  Actual Average Record
Temperature  
Mean Temperature 58 °F -  
Max Temperature 69 °F 57 °F 80 °F (1999)
Min Temperature 44 °F 36 °F 20 °F (1993)
Degree Days  
Heating Degree Days 8    
Growing Degree Days 8 (Base 50)    
Moisture  
Dew Point 48 °F    
Average Humidity 72    
Maximum Humidity 93    
Minimum Humidity 53    
Precipitation  
Precipitation 0.16 in - - ()
Sea Level Pressure  
Sea Level Pressure 29.73 in    
Wind  
Wind Speed 13 mph ()    
Max Wind Speed 21 mph    
Max Gust Speed 28 mph    
Visibility 10.0 miles    
Events      
Averages and records for this station are not official NWS values.
T = Trace of Precipitation, MM = Missing Value Source: Averaged Metar Reports

Daily Weather History Graph

Daily Weather History Graph

Search for Another Location

Airport or City:

Astronomy

Oct. 09, 2019 Rise Set
Actual Time 7:33 AM CDT 6:49 PM CDT
Civil Twilight 7:03 AM CDT 7:19 PM CDT
Nautical Twilight 6:28 AM CDT 7:54 PM CDT
Astronomical Twilight 5:53 AM CDT 8:29 PM CDT
Moon 5:39 PM CDT (10/9) 3:01 AM CDT (10/9)
Length of Visible Light 12h 16m
Length of Day
11h 16m
Waxing Gibbous, 85% of the Moon is Illuminated
Oct 9
Waxing Gibbous
Oct 13
Full
Oct 21
Last Quarter
Oct 27
New
Nov 4
First Quarter

Hourly Weather History & Observations

Time (CDT) Temp. Windchill Dew Point Humidity Pressure Visibility Wind Dir Wind Speed Gust Speed Precip Events Conditions
12:16 AM 57.2 °F - 46.4 °F 67% 29.72 in 10.0 mi SSE 13.8 mph 19.6 mph N/A   Clear
12:36 AM 57.2 °F - 46.4 °F 67% 29.72 in 10.0 mi SSE 13.8 mph 21.9 mph N/A   Clear
12:55 AM 57.2 °F - 46.4 °F 67% 29.72 in 10.0 mi SSE 13.8 mph - N/A   Clear
1:15 AM 57.2 °F - 46.4 °F 67% 29.71 in 10.0 mi SSE 13.8 mph - N/A   Clear
1:19 AM 55.4 °F - 46.4 °F 72% 29.71 in 10.0 mi SSE 13.8 mph - N/A   Clear
1:37 AM 55.4 °F - 44.6 °F 67% 29.71 in 10.0 mi SSE 15.0 mph - N/A   Clear
1:56 AM 55.4 °F - 44.6 °F 67% 29.70 in 10.0 mi SSE 15.0 mph 23.0 mph N/A   Clear
2:15 AM 55.4 °F - 44.6 °F 67% 29.70 in 10.0 mi SSE 15.0 mph 20.7 mph N/A   Clear
2:16 AM 55.4 °F - 44.6 °F 67% 29.70 in 10.0 mi SSE 15.0 mph 20.7 mph N/A   Clear
2:35 AM 55.4 °F - 44.6 °F 67% 29.70 in 10.0 mi SSE 15.0 mph - N/A   Clear
2:57 AM 55.4 °F - 44.6 °F 67% 29.70 in 10.0 mi SSE 15.0 mph - N/A   Clear
3:35 AM 53.6 °F - 44.6 °F 72% 29.69 in 10.0 mi SSE 15.0 mph - N/A   Clear
3:36 AM 53.6 °F - 44.6 °F 72% 29.69 in 10.0 mi SSE 13.8 mph - N/A   Clear
3:55 AM 55.4 °F - 44.6 °F 67% 29.68 in 10.0 mi SSE 16.1 mph 23.0 mph N/A   Clear
3:56 AM 55.4 °F - 44.6 °F 67% 29.68 in 10.0 mi SSE 15.0 mph 23.0 mph N/A   Clear
4:18 AM 55.4 °F - 44.6 °F 67% 29.68 in 10.0 mi SSE 16.1 mph - N/A   Clear
4:36 AM 53.6 °F - 46.4 °F 77% 29.68 in 10.0 mi SSE 16.1 mph 21.9 mph N/A   Clear
4:55 AM 53.6 °F - 46.4 °F 77% 29.68 in 10.0 mi SSE 16.1 mph 23.0 mph N/A   Clear
4:56 AM 53.6 °F - 46.4 °F 77% 29.68 in 10.0 mi SSE 17.3 mph 23.0 mph N/A   Clear
5:15 AM 53.6 °F - 46.4 °F 77% 29.68 in 10.0 mi SSE 17.3 mph - N/A   Clear
5:16 AM 53.6 °F - 46.4 °F 77% 29.68 in 10.0 mi SSE 17.3 mph - N/A   Clear
5:35 AM 53.6 °F - 46.4 °F 77% 29.68 in 10.0 mi SSE 15.0 mph - N/A   Clear
5:40 AM 53.6 °F - 46.4 °F 77% 29.69 in 10.0 mi SSE 15.0 mph 18.4 mph N/A   Clear
5:57 AM 53.6 °F - 46.4 °F 77% 29.69 in 10.0 mi SSE 15.0 mph 21.9 mph N/A   Clear
6:15 AM 53.6 °F - 46.4 °F 77% 29.69 in 10.0 mi SSE 13.8 mph - N/A   Clear
6:35 AM 53.6 °F - 46.4 °F 77% 29.69 in 10.0 mi SSE 15.0 mph - N/A   Clear
6:36 AM 53.6 °F - 46.4 °F 77% 29.69 in 10.0 mi SSE 15.0 mph - N/A   Clear
6:55 AM 53.6 °F - 46.4 °F 77% 29.69 in 10.0 mi SSE 12.7 mph - N/A   Clear
6:56 AM 53.6 °F - 46.4 °F 77% 29.70 in 10.0 mi SSE 12.7 mph - N/A   Clear
7:19 AM 53.6 °F - 46.4 °F 77% 29.70 in 10.0 mi SSE 12.7 mph - N/A   Clear
7:36 AM 53.6 °F - 46.4 °F 77% 29.70 in 10.0 mi SSE 12.7 mph - N/A   Clear
7:56 AM 53.6 °F - 46.4 °F 77% 29.71 in 10.0 mi SSE 10.4 mph - N/A   Clear
8:15 AM 53.6 °F - 46.4 °F 77% 29.71 in 10.0 mi SSE 12.7 mph 17.3 mph N/A   Clear
8:16 AM 53.6 °F - 46.4 °F 77% 29.71 in 10.0 mi SSE 10.4 mph 17.3 mph N/A   Clear
8:35 AM 53.6 °F - 48.2 °F 82% 29.70 in 10.0 mi SSE 12.7 mph 19.6 mph N/A   Clear
8:40 AM 53.6 °F - 48.2 °F 82% 29.70 in 10.0 mi SSE 12.7 mph 19.6 mph N/A   Clear
8:58 AM 55.4 °F - 48.2 °F 77% 29.71 in 10.0 mi SSE 16.1 mph 19.6 mph N/A   Clear
9:15 AM 55.4 °F - 48.2 °F 77% 29.70 in 10.0 mi SSE 15.0 mph 20.7 mph N/A   Clear
9:35 AM 55.4 °F - 48.2 °F 77% 29.71 in 10.0 mi SSE 16.1 mph 19.6 mph N/A   Clear
9:36 AM 55.4 °F - 48.2 °F 77% 29.71 in 10.0 mi SSE 16.1 mph 19.6 mph N/A   Clear
9:55 AM 57.2 °F - 48.2 °F 72% 29.70 in 10.0 mi SSE 19.6 mph - N/A   Clear
10:18 AM 59.0 °F - 48.2 °F 67% 29.70 in 10.0 mi SSE 17.3 mph 23.0 mph N/A   Clear
10:36 AM 59.0 °F - 48.2 °F 67% 29.71 in 10.0 mi South 18.4 mph - N/A   Clear
10:55 AM 60.8 °F - 50.0 °F 68% 29.71 in 10.0 mi South 18.4 mph - N/A   Clear
10:56 AM 60.8 °F - 50.0 °F 68% 29.71 in 10.0 mi South 16.1 mph - N/A   Clear
11:15 AM 62.6 °F - 50.0 °F 63% 29.71 in 10.0 mi South 19.6 mph - N/A   Clear
11:35 AM 62.6 °F - 50.0 °F 63% 29.71 in 10.0 mi South 18.4 mph - N/A   Clear
11:57 AM 64.4 °F - 51.8 °F 64% 29.70 in 10.0 mi South 17.3 mph 23.0 mph N/A   Clear
12:15 PM 64.4 °F - 51.8 °F 64% 29.70 in 10.0 mi South 18.4 mph 25.3 mph N/A   Clear
12:35 PM 66.2 °F - 51.8 °F 60% 29.70 in 10.0 mi South 20.7 mph 26.5 mph 0.04 in   Clear
12:36 PM 66.2 °F - 51.8 °F 60% 29.70 in 10.0 mi South 17.3 mph 26.5 mph 0.04 in   Clear
12:55 PM - - - N/A% 29.71 in - South 20.7 mph - 0.06 in   Unknown
12:56 PM - - - N/A% 29.71 in - South 20.7 mph - N/A   Unknown
1:15 PM 66.2 °F - 51.8 °F 60% 29.70 in 10.0 mi South 13.8 mph 27.6 mph N/A   Clear
1:20 PM 68.0 °F - 51.8 °F 56% 29.70 in 10.0 mi South 20.7 mph 26.5 mph N/A   Clear
1:37 PM 64.4 °F - 51.8 °F 64% 29.70 in 10.0 mi South 16.1 mph 21.9 mph N/A   Clear
1:55 PM 69.8 °F - 51.8 °F 53% 29.69 in 10.0 mi South 19.6 mph - 0.10 in   Clear
2:15 PM 69.8 °F - 51.8 °F 53% 29.68 in 10.0 mi South 16.1 mph 20.7 mph N/A   Clear
2:16 PM 69.8 °F - 51.8 °F 53% 29.68 in 10.0 mi South 16.1 mph 20.7 mph N/A   Clear
2:35 PM 69.8 °F - 51.8 °F 53% 29.68 in 10.0 mi SSW 17.3 mph 21.9 mph N/A   Clear
2:36 PM 69.8 °F - 51.8 °F 53% 29.68 in 10.0 mi South 17.3 mph 21.9 mph N/A   Clear
3:16 PM 69.8 °F - 51.8 °F 53% 29.69 in 10.0 mi South 13.8 mph 21.9 mph N/A   Clear
3:35 PM 69.8 °F - 51.8 °F 53% 29.69 in 10.0 mi South 13.8 mph 19.6 mph N/A   Clear
3:36 PM 69.8 °F - 51.8 °F 53% 29.69 in 10.0 mi South 13.8 mph 19.6 mph N/A   Clear
4:18 PM 68.0 °F - 51.8 °F 56% 29.70 in 10.0 mi SSW 12.7 mph - N/A   Clear
4:37 PM 68.0 °F - 53.6 °F 60% 29.71 in 10.0 mi SSW 10.4 mph - N/A   Mostly Cloudy
4:56 PM 68.0 °F - 53.6 °F 60% 29.71 in 10.0 mi SW 9.2 mph - N/A   Overcast
5:15 PM 68.0 °F - 53.6 °F 60% 29.72 in 10.0 mi SW 6.9 mph - N/A   Overcast
5:16 PM 68.0 °F - 53.6 °F 60% 29.72 in 10.0 mi SW 6.9 mph - N/A   Overcast
5:35 PM 66.2 °F - 53.6 °F 64% 29.73 in 10.0 mi WSW 6.9 mph - N/A   Overcast
5:39 PM 66.2 °F - 53.6 °F 64% 29.73 in 10.0 mi WSW 6.9 mph - N/A   Overcast
5:57 PM 66.2 °F - 53.6 °F 64% 29.74 in 10.0 mi WSW 6.9 mph - N/A   Overcast
6:16 PM 64.4 °F - 53.6 °F 68% 29.74 in 10.0 mi WSW 6.9 mph - N/A   Overcast
6:35 PM 64.4 °F - 53.6 °F 68% 29.75 in 10.0 mi WSW 5.8 mph - N/A   Overcast
6:36 PM 64.4 °F - 53.6 °F 68% 29.75 in 10.0 mi WSW 5.8 mph - N/A   Overcast
6:59 PM 62.6 °F - 53.6 °F 72% 29.75 in 10.0 mi WSW 5.8 mph - N/A   Overcast
7:16 PM 57.2 °F - 50.0 °F 77% 29.77 in 10.0 mi NNW 11.5 mph - N/A   Mostly Cloudy
7:36 PM 55.4 °F - 50.0 °F 82% 29.78 in 10.0 mi NNW 9.2 mph - N/A   Overcast
7:55 PM 53.6 °F - 48.2 °F 82% 29.80 in 10.0 mi NNW 10.4 mph 16.1 mph N/A   Overcast
8:15 PM 53.6 °F - 48.2 °F 82% 29.80 in 10.0 mi NNW 11.5 mph 18.4 mph N/A   Mostly Cloudy
8:19 PM 51.8 °F - 48.2 °F 88% 29.81 in 10.0 mi NNW 15.0 mph 18.4 mph N/A   Mostly Cloudy
8:38 PM 51.8 °F - 48.2 °F 88% 29.82 in 10.0 mi North 9.2 mph 16.1 mph N/A   Mostly Cloudy
8:55 PM 51.8 °F - 48.2 °F 88% 29.82 in 10.0 mi North 8.1 mph 16.1 mph N/A   Overcast
9:15 PM 51.8 °F - 48.2 °F 88% 29.84 in 10.0 mi North 6.9 mph - N/A   Overcast
9:16 PM 51.8 °F - 48.2 °F 88% 29.84 in 10.0 mi NNE 6.9 mph - N/A   Overcast
9:35 PM 51.8 °F - 46.4 °F 82% 29.84 in 10.0 mi NNW 8.1 mph - N/A   Overcast
9:57 PM 50.0 °F - 46.4 °F 87% 29.85 in 10.0 mi NW 10.4 mph - N/A   Overcast
10:16 PM 48.2 °F - 46.4 °F 93% 29.85 in 10.0 mi NNW 9.2 mph - N/A   Overcast
10:35 PM 48.2 °F - 44.6 °F 87% 29.86 in 10.0 mi NNW 11.5 mph - N/A   Overcast
10:36 PM 48.2 °F - 44.6 °F 87% 29.86 in 10.0 mi NNW 10.4 mph - N/A   Overcast
10:55 PM 46.4 °F 40.1 °F 44.6 °F 93% 29.87 in 10.0 mi NNW 15.0 mph 18.4 mph N/A   Overcast
10:56 PM 46.4 °F 40.1 °F 44.6 °F 93% 29.87 in 10.0 mi NNW 15.0 mph 18.4 mph N/A   Overcast
11:18 PM 46.4 °F 41.9 °F 44.6 °F 93% 29.87 in 10.0 mi NNW 9.2 mph - N/A   Overcast
11:36 PM 46.4 °F 40.7 °F 42.8 °F 87% 29.87 in 10.0 mi NNW 12.7 mph 18.4 mph N/A   Overcast
11:56 PM 44.6 °F 38.8 °F 42.8 °F 93% 29.88 in 10.0 mi NNW 11.5 mph - N/A   Overcast